Location: Newark
(48.0000°N, 67.0000°E)
Time: 22:25:39
(UTC+00:00)

A-11 Canister half - Pass Details

Date: 18 February 2020
Orbit: 1516 x 1683 km, 47.2° (Epoch: 05 April)

Event Time Altitude Azimuth Distance (km) Brightness Sun altitude
Rises 15:25:37 0° 268° (W) 4,856 12.9 -25.2°
Reaches altitude 10° 15:28:47 10° 268° (W) 3,848 12.1 -25.8°
Maximum altitude 15:38:36 87° 181° (S) 1,585 8.9 -27.4°
Enters shadow 15:41:36 51° 96° (E) 1,907 9.0 -27.8°
